Regional Weather Roundup
Issued by NWS

Home | Current Version | Previous Version | Text Only | Print | Product List | Glossary On
Versions: 1 2 3 4 5 6 7 8 9 10 11 12 13 14 15 16 17 18 19 20 21 22 23 24 25 26 27 28 29 30 31 32 33 34 35 36 37 38 39 40 41 42 43 44 45 46 47 48 49 50
000
ASUS44 KOUN 280210
RWROK

WEATHER ROUNDUP FOR OKLAHOMA
NATIONAL WEATHER SERVICE NORMAN OK
900 PM CDT FRI MAY 27 2016

NOTE: "FAIR" INDICATES FEW OR NO CLOUDS BELOW 12,000 FEET WITH NO
      SIGNIFICANT WEATHER AND/OR OBSTRUCTIONS TO VISIBILITY.

OKZ001>007-009>012-014-015-017-280300-
NORTHWEST OKLAHOMA AND THE PANHANDLE

CITY           SKY/WX    TMP DP  RH WIND       PRES   REMARKS
GAGE           CLEAR     69  46  43 SW10      29.70R
GUYMON         CLEAR     63  44  50 N16       29.77R
ENID/WOODRING  PTCLDY    70  63  78 S7        29.65R
$$

OKZ016-021>023-033>039-044-045-280300-
SOUTHWEST OKLAHOMA

CITY           SKY/WX    TMP DP  RH WIND       PRES   REMARKS
LAWTON/REGL    CLEAR     75  65  70 E5        29.70R
LAWTON/FT SILL CLEAR     70  64  80 SE7       29.70R
CLINTON        CLEAR     72  49  44 N3        29.74R
HOBART         CLEAR     76  53  44 SW5       29.71R
ALTUS AFB      CLEAR     75  53  46 NE3       29.69R
$$

OKZ018>020-024>031-280300-
CENTRAL OKLAHOMA

CITY           SKY/WX    TMP DP  RH WIND       PRES   REMARKS
OKLAHOMA CITY  CLOUDY    65  57  75 S12       29.71R
OKC/WILEY POST CLOUDY    69  57  65 SE14      29.71R
OKC/TINKER AFB CLOUDY    67  56  67 SE8       29.71R
STILLWATER     LGT RAIN  69  66  90 S5        29.68R
GUTHRIE        CLOUDY    68  65  90 SW6       29.69R
$$

OKZ008-013-054>072-280300-
NORTHEAST OKLAHOMA

CITY           SKY/WX    TMP DP  RH WIND       PRES   REMARKS
TULSA          CLOUDY    74  65  73 S16       29.68R
TULSA/JONES    MOCLDY    75  64  68 S8        29.70R
PONCA CITY     CLOUDY    65  62  90 VRB3      29.67R
BARTLESVILLE   CLOUDY    72  63  73 S3        29.70R
MUSKOGEE       CLOUDY    71  65  81 S12       29.74R
$$

OKZ032-040>043-046>053-073>077-280300-
SOUTH CENTRAL/SOUTHEAST OKLAHOMA

CITY           SKY/WX    TMP DP  RH WIND       PRES   REMARKS
ARDMORE/DWNTWN CLOUDY    72  63  73 E9        29.77R
MCALESTER      MOCLDY    71  64  78 S7        29.79R
$$





USA.gov is the U.S. government's official web portal to all federal, state and local government web resources and services.